This demonstration page uses our WeatherBlox Daily Observations layout. Learn more.

Left ArrowRight Arrow

53.62937, 11.41316

Hourly Observations for September 29, 2021

Temp ( °F °C ) Dew Point ( °F °C ) Humidity (%) Winds ( mph kmh ) Pressure ( in mb ) Visibility ( mi km ) Precip ( " mm )
7:50 am 07:50 Mostly Sunny 52 11 48 9 88 88 NE 5 7 30.03 1017 6 9 N/A
8:20 am 08:20 Mostly Sunny 52 11 48 9 88 88 SSE 3 6 30.03 1017 7 11 N/A
8:50 am 08:50 Mostly Sunny 54 12 50 10 88 88 ESE 5 7 30.03 1017 7 11 N/A
9:20 am 09:20 Mostly Sunny 54 12 50 10 88 88 SE 5 7 30.03 1017 7 11 N/A
9:50 am 09:50 Mostly Sunny 55 13 52 11 88 88 ESE 5 7 30.00 1016 7 11 N/A
10:20 am 10:20 Mostly Sunny 55 13 52 11 88 88 SE 6 9 30.00 1016 30 48 N/A
10:50 am 10:50 Mostly Sunny 55 13 52 11 88 88 SE 8 13 30.00 1016 30 48 N/A
11:20 am 11:20 Mostly Sunny 55 13 52 11 88 88 ESE 8 13 29.97 1015 7 11 N/A
11:50 am 11:50 Mostly Sunny 57 14 54 12 88 88 SE 7 11 29.97 1015 7 11 N/A
12:20 pm 12:20 Mostly Sunny 57 14 54 12 88 88 SE 9 15 29.97 1015 30 48 N/A
12:50 pm 12:50 Mostly Cloudy 57 14 54 12 88 88 SE 9 15 29.97 1015 30 48 N/A
1:20 pm 13:20 Mostly Cloudy 59 15 55 13 88 88 SE 8 13 29.94 1014 30 48 N/A
1:50 pm 13:50 Mostly Cloudy 59 15 55 13 88 88 SE 9 15 29.94 1014 30 48 N/A
2:20 pm 14:20 Mostly Cloudy 59 15 54 12 82 82 SSE 7 11 29.94 1014 30 48 N/A
2:50 pm 14:50 Mostly Cloudy 59 15 54 12 82 82 SE 8 13 29.91 1013 30 48 N/A
3:20 pm 15:20 Partly Cloudy 61 16 54 12 77 77 SSE 8 13 29.91 1013 30 48 N/A
3:50 pm 15:50 Partly Cloudy 61 16 54 12 77 77 SE 8 13 29.91 1013 30 48 N/A
4:20 pm 16:20 Partly Cloudy 61 16 54 12 77 77 SE 8 13 29.88 1012 30 48 N/A
4:50 pm 16:50 Partly Cloudy with Showers Nearby 59 15 54 12 82 82 SSE 8 13 29.88 1012 30 48 N/A
5:20 pm 17:20 Partly Cloudy with Light Showers 59 15 55 13 88 88 SSE 6 9 29.88 1012 30 48 N/A
5:50 pm 17:50 Mostly Cloudy with Showers Nearby 59 15 55 13 88 88 S 3 6 29.88 1012 30 48 N/A
6:20 pm 18:20 Mostly Cloudy with Showers Nearby 59 15 55 13 88 88 SSW 17 28 29.88 1012 30 48 N/A
6:50 pm 18:50 Mostly Cloudy with Thunderstorms 55 13 52 11 88 88 S 9 15 29.88 1012 30 48 N/A
7:20 pm 19:20 Mostly Clear 54 12 52 11 94 94 SSW 10 17 29.91 1013 30 48 N/A
7:50 pm 19:50 Mostly Clear 52 11 52 11 100 100 S 8 13 29.91 1013 30 48 N/A
8:20 pm 20:20 Partly Cloudy 52 11 50 10 94 94 S 12 19 29.94 1014 30 48 N/A
8:50 pm 20:50 Mostly Cloudy 52 11 48 9 88 88 SSW 17 28 29.94 1014 30 48 N/A
9:20 pm 21:20 Mostly Cloudy 52 11 48 9 88 88 S 9 15 29.94 1014 30 48 N/A
9:50 pm 21:50 Partly Cloudy 52 11 48 9 88 88 S 10 17 29.94 1014 30 48 N/A

Powered by AerisWeather